Location: Bailleul
(50.3375°N, 2.8513°E)
Time: 15:52:16
(UTC+00:00)

Cosmos 2237 Rocket - Pass Details

Date: 19 April 2021
Orbit: 836 x 849 km, 71.0° (Epoch: 06 May)

Event Time Altitude Azimuth Distance (km) Brightness Sun altitude
Rises 19:17:50 0° 332° (NNW) 3,408 6.3 -5.0°
Reaches altitude 10° 19:20:29 10° 341° (NNW) 2,468 5.3 -5.4°
Maximum altitude 19:25:43 37° 49° (NE) 1,280 3.0 -6.1°
Drops below altitude 10° 19:30:55 10° 116° (ESE) 2,449 3.9 -6.9°
Enters shadow 19:31:19 - 118° (ESE) 2,589 4.0 -6.9°
